Saguache, CO

2:23 PM MDT on August 21, 2017 (GMT -0600)
Saguache

Weather History for K04V - March, 2014

Change the Weather History Date:

Monday, March 17, 2014

  Actual Average (KALS) Record (KALS)
Temperature  
Mean Temperature 38 °F -  
Max Temperature 55 °F 50 °F 70 °F (2007)
Min Temperature 21 °F 18 °F -5 °F (1980)
Degree Days  
Heating Degree Days 27    
Moisture  
Dew Point 11 °F    
Average Humidity 36    
Maximum Humidity 93    
Minimum Humidity 13    
Precipitation  
Precipitation 0.00 in - - ()
Sea Level Pressure  
Sea Level Pressure 29.80 in    
Wind  
Wind Speed 9 mph (NW)    
Max Wind Speed 33 mph    
Max Gust Speed 44 mph    
Visibility 10 miles    
Events Rain    
Averages and records for this station are not official NWS values.
T = Trace of Precipitation, MM = Missing Value Source: NWS Daily Summary

Daily Weather History Graph

Daily Weather History Graph

Search for Another Location

Airport or City:

Trip Planner

Search our weather history database for the weather conditions in past years. The results will help you decide how hot, cold, wet, or windy it might be!

Date:

Astronomy

Mar. 17, 2014 Rise Set
Actual Time 7:12 AM MDT 7:13 PM MDT
Civil Twilight 6:46 AM MDT 7:40 PM MDT
Nautical Twilight 6:15 AM MDT 8:10 PM MDT
Astronomical Twilight 5:44 AM MDT 8:41 PM MDT
Moon 8:31 PM MDT (3/17) 7:31 AM MDT (3/17)
Length of Visible Light 12h 53m
Length of Day
12h 01m
Full, 99% of the Moon is Illuminated
Mar 17
Full
Mar 23
Last Quarter
Mar 30
New
Apr 7
First Quarter
Apr 15
Full

Hourly Weather History & Observations

Time (MDT) Temp. Windchill Dew Point Humidity Pressure Visibility Wind Dir Wind Speed Gust Speed Precip Events Conditions
12:12 AM 35.6 °F 27.5 °F 12.2 °F 38% 30.15 in 10.0 mi NE 11.5 mph - N/A   Clear
12:32 AM 33.8 °F 30.8 °F 12.2 °F 41% 30.15 in 10.0 mi West 3.5 mph - N/A   Clear
12:52 AM 37.4 °F - 12.2 °F 36% 30.14 in 10.0 mi Calm Calm - N/A   Clear
1:12 AM 33.8 °F 30.8 °F 12.2 °F 41% 30.14 in 10.0 mi NW 3.5 mph - N/A   Clear
1:32 AM 35.6 °F - 12.2 °F 38% 30.14 in 10.0 mi Calm Calm - N/A   Clear
1:52 AM 35.6 °F 32.8 °F 10.4 °F 35% 30.14 in 10.0 mi North 3.5 mph - N/A   Clear
2:11 AM 33.8 °F 25.3 °F 10.4 °F 38% 30.12 in 10.0 mi NNE 11.5 mph - N/A   Clear
2:32 AM 32.0 °F 24.8 °F 10.4 °F 41% 30.12 in 10.0 mi NNW 8.1 mph - N/A   Clear
2:52 AM 35.6 °F 29.2 °F 10.4 °F 35% 30.11 in 10.0 mi North 8.1 mph - N/A   Clear
3:11 AM 30.2 °F 22.6 °F 10.4 °F 44% 30.10 in 10.0 mi NW 8.1 mph - N/A   Clear
3:31 AM 30.2 °F 22.6 °F 10.4 °F 44% 30.09 in 10.0 mi WNW 8.1 mph - N/A   Clear
3:51 AM 30.2 °F 22.6 °F 10.4 °F 44% 30.08 in 10.0 mi NNW 8.1 mph - N/A   Clear
4:12 AM 30.2 °F 24.3 °F 10.4 °F 44% 30.07 in 10.0 mi North 5.8 mph - N/A   Clear
4:32 AM 28.4 °F 20.4 °F 10.4 °F 47% 30.06 in 10.0 mi NNE 8.1 mph - N/A   Clear
4:52 AM 26.6 °F 21.2 °F 10.4 °F 51% 30.06 in 10.0 mi WNW 4.6 mph - N/A   Clear
5:12 AM 28.4 °F 22.2 °F 10.4 °F 47% 30.04 in 10.0 mi NNW 5.8 mph - N/A   Clear
5:32 AM 26.6 °F - 10.4 °F 51% 30.04 in 10.0 mi Calm Calm - N/A   Clear
5:52 AM 26.6 °F 21.2 °F 10.4 °F 51% 30.03 in 10.0 mi North 4.6 mph - N/A   Clear
6:12 AM 23.0 °F 18.4 °F 10.4 °F 59% 30.02 in 10.0 mi WNW 3.5 mph - N/A   Clear
6:32 AM 24.8 °F 19.1 °F 10.4 °F 54% 30.01 in 10.0 mi North 4.6 mph - N/A   Clear
6:52 AM 23.0 °F 18.4 °F 8.6 °F 54% 30.01 in 10.0 mi NNE 3.5 mph - N/A   Clear
7:11 AM 21.2 °F - 10.4 °F 63% 30.00 in 10.0 mi Calm Calm - N/A   Clear
7:32 AM 23.0 °F 18.4 °F 10.4 °F 59% 30.00 in 10.0 mi NNW 3.5 mph - N/A   Clear
7:52 AM 24.8 °F 17.9 °F 10.4 °F 54% 29.98 in 10.0 mi WNW 5.8 mph - N/A   Clear
8:12 AM 26.6 °F 20.0 °F 14.0 °F 59% 29.98 in 10.0 mi NW 5.8 mph - N/A   Clear
8:32 AM 30.2 °F 25.4 °F 14.0 °F 51% 29.96 in 10.0 mi NW 4.6 mph - N/A   Clear
8:51 AM 32.0 °F 28.7 °F 14.0 °F 48% 29.94 in 10.0 mi NW 3.5 mph - N/A   Clear
9:11 AM 35.6 °F - 14.0 °F 41% 29.93 in 10.0 mi Calm Calm - N/A   Clear
9:32 AM 37.4 °F - 14.0 °F 38% 29.92 in 10.0 mi Calm Calm - N/A   Clear
9:52 AM 39.2 °F 34.2 °F 14.0 °F 36% 29.90 in 10.0 mi SE 6.9 mph - N/A   Clear
10:12 AM 39.2 °F 33.6 °F 12.2 °F 33% 29.89 in 10.0 mi SE 8.1 mph - N/A   Clear
10:32 AM 41.0 °F 36.4 °F 12.2 °F 31% 29.88 in 10.0 mi SE 6.9 mph - N/A   Clear
10:51 AM 41.0 °F 36.4 °F 10.4 °F 29% 29.86 in 10.0 mi South 6.9 mph - N/A   Clear
11:11 AM 42.8 °F 38.0 °F 10.4 °F 27% 29.84 in 10.0 mi SE 8.1 mph - N/A   Clear
11:31 AM 44.6 °F 40.2 °F 10.4 °F 25% 29.81 in 10.0 mi South 8.1 mph - N/A   Clear
11:52 AM 44.6 °F 40.7 °F 10.4 °F 25% 29.79 in 10.0 mi South 6.9 mph - N/A   Clear
12:12 PM 46.4 °F 44.3 °F 10.4 °F 23% 29.78 in 10.0 mi SE 4.6 mph - N/A   Clear
12:32 PM 46.4 °F 44.3 °F 10.4 °F 23% 29.76 in 10.0 mi SSE 4.6 mph - N/A   Clear
12:52 PM 48.2 °F - 10.4 °F 22% 29.74 in 10.0 mi ESE 5.8 mph - N/A   Clear
1:12 PM 48.2 °F - 10.4 °F 22% 29.72 in 10.0 mi ESE 3.5 mph - N/A   Clear
1:32 PM 48.2 °F - 10.4 °F 22% 29.69 in 10.0 mi East 3.5 mph - N/A   Clear
1:52 PM 50.0 °F - 10.4 °F 20% 29.67 in 10.0 mi East 5.8 mph - N/A   Clear
2:11 PM 51.8 °F - 10.4 °F 19% 29.64 in 10.0 mi NW 4.6 mph - N/A   Clear
2:32 PM 53.6 °F - 10.4 °F 18% 29.61 in 10.0 mi NNE 3.5 mph - N/A   Clear
2:51 PM 53.6 °F - 8.6 °F 16% 29.60 in 10.0 mi NNW 10.4 mph - N/A   Scattered Clouds
3:11 PM 53.6 °F - 6.8 °F 15% 29.58 in 10.0 mi NW 4.6 mph - N/A   Scattered Clouds
3:32 PM 53.6 °F - 6.8 °F 15% 29.57 in 10.0 mi NW 10.4 mph - N/A   Mostly Cloudy
3:52 PM 53.6 °F - 5.0 °F 14% 29.55 in 10.0 mi WNW 19.6 mph 28.8 mph N/A   Mostly Cloudy
4:12 PM 55.4 °F - 5.0 °F 13% 29.54 in 10.0 mi NW 16.1 mph 27.6 mph N/A   Mostly Cloudy
4:32 PM 55.4 °F - 5.0 °F 13% 29.54 in 10.0 mi West 17.3 mph 32.2 mph N/A   Scattered Clouds
4:52 PM 53.6 °F - 5.0 °F 14% 29.54 in 10.0 mi West 21.9 mph 33.4 mph N/A   Scattered Clouds
5:12 PM 51.8 °F - 5.0 °F 15% 29.54 in 10.0 mi WNW 19.6 mph 31.1 mph N/A   Mostly Cloudy
5:32 PM 51.8 °F - 3.2 °F 14% 29.53 in 10.0 mi WNW 24.2 mph 28.8 mph N/A   Overcast
5:52 PM 51.8 °F - 5.0 °F 15% 29.53 in 10.0 mi NW 18.4 mph 28.8 mph N/A   Overcast
6:12 PM 51.8 °F - 5.0 °F 15% 29.52 in 10.0 mi WNW 15.0 mph 33.4 mph N/A   Mostly Cloudy
6:31 PM 51.8 °F - 3.2 °F 14% 29.52 in 10.0 mi West 23.0 mph 35.7 mph N/A   Mostly Cloudy
6:52 PM 48.2 °F - 6.8 °F 19% 29.53 in 10.0 mi WNW 21.9 mph 28.8 mph N/A   Scattered Clouds
7:12 PM 48.2 °F - 8.6 °F 20% 29.53 in 10.0 mi WNW 26.5 mph 34.5 mph N/A   Mostly Cloudy
7:32 PM 46.4 °F 37.9 °F 10.4 °F 23% 29.53 in 10.0 mi NW 25.3 mph 29.9 mph N/A   Mostly Cloudy
7:52 PM 46.4 °F 39.8 °F 12.2 °F 25% 29.53 in 10.0 mi NW 16.1 mph 26.5 mph N/A   Mostly Cloudy
8:12 PM 42.8 °F 37.0 °F 12.2 °F 29% 29.53 in 10.0 mi NW 10.4 mph - N/A   Scattered Clouds
8:31 PM 44.6 °F 34.9 °F 14.0 °F 29% 29.55 in 10.0 mi NW 28.8 mph 35.7 mph N/A   Mostly Cloudy
8:52 PM 41.0 °F 30.5 °F 24.8 °F 53% 29.59 in 10.0 mi NNW 26.5 mph 40.3 mph N/A   Overcast
9:12 PM 33.8 °F 22.5 °F 32.0 °F 93% 29.58 in 2.0 mi WNW 19.6 mph - N/A Rain Rain
9:32 PM 33.8 °F 25.8 °F 30.2 °F 87% 29.57 in 10.0 mi North 10.4 mph - N/A   Scattered Clouds
9:52 PM 33.8 °F 24.8 °F 26.6 °F 75% 29.57 in 10.0 mi North 12.7 mph - N/A   Clear
10:12 PM 35.6 °F 24.8 °F 21.2 °F 56% 29.56 in 10.0 mi NW 19.6 mph 25.3 mph N/A   Clear
10:32 PM 37.4 °F 24.6 °F 12.2 °F 36% 29.55 in 10.0 mi NNW 32.2 mph 40.3 mph N/A   Clear
10:51 PM 37.4 °F 24.4 °F 10.4 °F 33% 29.56 in 10.0 mi NNW 33.4 mph 43.7 mph N/A   Clear
11:12 PM 37.4 °F 25.9 °F 10.4 °F 33% 29.57 in 10.0 mi NNW 25.3 mph 35.7 mph N/A   Clear
11:32 PM 35.6 °F 23.4 °F 12.2 °F 38% 29.57 in 10.0 mi NNW 25.3 mph 41.4 mph N/A   Clear
11:52 PM 33.8 °F 20.3 °F 12.2 °F 41% 29.57 in 10.0 mi NNW 28.8 mph 39.1 mph N/A   Clear